Weather History for KABE - May, 2013

Change the Weather History Date:

Thursday, May 23, 2013

  Actual Average Record
Temperature  
Mean Temperature 70 °F 62 °F  
Max Temperature 79 °F 74 °F 95 °F (1925)
Min Temperature 61 °F 51 °F 37 °F (2002)
Degree Days  
Heating Degree Days 0 5  
Month to date heating degree days 136 168  
Since 1 July heating degree days 5345 5738  
Cooling Degree Days 5 2  
Month to date cooling degree days 31 20  
Year to date cooling degree days 39 25  
Growing Degree Days 20 (Base 50)    
Moisture  
Dew Point 65 °F    
Average Humidity 80    
Maximum Humidity 93    
Minimum Humidity 67    
Precipitation  
Precipitation 0.46 in 0.15 in 2.40 in (1942)
Month to date precipitation 1.85 3.00  
Year to date precipitation 13.13 15.68  
Snow  
Snow 0.00 in 0.00 in 0.00 in ()
Month to date snowfall 0.0 0.0  
Since 1 July snowfall 21.4 32.9  
Snow Depth 0.00 in    
Sea Level Pressure  
Sea Level Pressure 29.81 in    
Wind  
Wind Speed 6 mph (SSW)    
Max Wind Speed 21 mph    
Max Gust Speed 28 mph    
Visibility 8 miles    
Events Rain , Thunderstorm    
T = Trace of Precipitation, MM = Missing Value Source: NWS Daily Summary

Daily Weather History Graph

Daily Weather History Graph

Search for Another Location

Airport or City:

Trip Planner

Search our weather history database for the weather conditions in past years. The results will help you decide how hot, cold, wet, or windy it might be!

Date:

Astronomy

May. 23, 2013 Rise Set
Actual Time 5:38 AM EDT 8:19 PM EDT
Civil Twilight 5:06 AM EDT 8:51 PM EDT
Nautical Twilight 4:26 AM EDT 9:31 PM EDT
Astronomical Twilight 3:41 AM EDT 10:16 PM EDT
Moon 6:48 PM EDT (5/23) 4:21 AM EDT (5/23)
Length of Visible Light 15h 45m
Length of Day
14h 41m
Waxing Gibbous, 97% of the Moon is Illuminated
May 23
Waxing Gibbous
May 25
Full
May 31
Last Quarter
Jun 8
New
Jun 16
First Quarter

Hourly Weather History & Observations

Time (EDT) Temp. Dew Point Humidity Pressure Visibility Wind Dir Wind Speed Gust Speed Precip Events Conditions
12:51 AM 68.0 °F 62.1 °F 81% 29.87 in 10.0 mi Calm Calm - N/A   Clear
1:51 AM 66.0 °F 62.1 °F 87% 29.85 in 10.0 mi Calm Calm - N/A   Clear
2:51 AM 66.0 °F 61.0 °F 84% 29.83 in 10.0 mi Calm Calm - N/A   Clear
3:51 AM 62.1 °F 60.1 °F 93% 29.85 in 9.0 mi WNW 3.5 mph - N/A   Clear
4:51 AM 64.0 °F 61.0 °F 90% 29.85 in 10.0 mi Calm Calm - N/A   Scattered Clouds
5:51 AM 64.0 °F 62.1 °F 93% 29.87 in 7.0 mi NW 3.5 mph - N/A   Scattered Clouds
6:51 AM 64.9 °F 63.0 °F 93% 29.87 in 7.0 mi NNW 3.5 mph - N/A   Mostly Cloudy
7:16 AM 66.2 °F 64.4 °F 94% 29.88 in 5.0 mi Calm Calm - 0.01 in Rain Light Rain
7:51 AM 68.0 °F 64.9 °F 90% 29.87 in 10.0 mi SW 3.5 mph - 0.01 in   Overcast
8:51 AM 71.1 °F 66.9 °F 87% 29.87 in 10.0 mi SSW 11.5 mph - N/A   Mostly Cloudy
9:13 AM 71.6 °F 66.2 °F 83% 29.88 in 10.0 mi SSW 11.5 mph - N/A   Overcast
9:51 AM 72.0 °F 66.9 °F 84% 29.88 in 10.0 mi SW 5.8 mph - N/A   Overcast
10:51 AM 72.0 °F 68.0 °F 87% 29.87 in 5.0 mi SSW 5.8 mph - 0.01 in Rain Rain
11:51 AM 73.0 °F 69.1 °F 87% 29.86 in 7.0 mi SW 9.2 mph - 0.01 in Rain Light Rain
12:51 PM 77.0 °F 66.9 °F 71% 29.84 in 10.0 mi SSW 15.0 mph - 0.00 in   Mostly Cloudy
1:51 PM 78.1 °F 66.0 °F 66% 29.81 in 10.0 mi SSW 12.7 mph 23.0 mph N/A   Mostly Cloudy
2:51 PM 69.1 °F 63.0 °F 81% 29.84 in 6.0 mi WSW 16.1 mph 26.5 mph 0.00 in Rain Rain
3:01 PM 66.2 °F 62.6 °F 88% 29.84 in 1.8 mi SW 11.5 mph 20.7 mph 0.03 in Rain Heavy Rain
3:13 PM 68.0 °F 64.4 °F 88% 29.83 in 3.0 mi SSW 8.1 mph - 0.11 in Rain Rain
3:51 PM 68.0 °F 64.9 °F 90% 29.82 in 5.0 mi WSW 4.6 mph - 0.15 in Rain Light Rain
4:51 PM 73.0 °F 66.9 °F 81% 29.79 in 10.0 mi SSW 6.9 mph - 0.01 in   Partly Cloudy
5:51 PM 75.0 °F 66.9 °F 76% 29.78 in 10.0 mi SW 5.8 mph - N/A   Mostly Cloudy
6:51 PM 73.9 °F 66.9 °F 79% 29.76 in 10.0 mi SE 6.9 mph - N/A   Mostly Cloudy
7:21 PM 73.4 °F 66.2 °F 78% 29.76 in 10.0 mi SE 5.8 mph - N/A   Mostly Cloudy
7:51 PM 72.0 °F 66.0 °F 81% 29.77 in 10.0 mi SE 5.8 mph - N/A   Mostly Cloudy
8:46 PM 71.6 °F 66.2 °F 83% 29.77 in 10.0 mi South 8.1 mph - N/A   Partly Cloudy
8:51 PM 72.0 °F 66.9 °F 84% 29.76 in 10.0 mi South 10.4 mph - N/A   Scattered Clouds
9:00 PM 71.6 °F 66.2 °F 83% 29.76 in 10.0 mi South 11.5 mph - N/A Thunderstorm Thunderstorm
9:39 PM 71.6 °F 66.2 °F 83% 29.76 in 10.0 mi South 6.9 mph - N/A   Mostly Cloudy
9:49 PM 71.6 °F 66.2 °F 83% 29.76 in 10.0 mi South 10.4 mph - N/A   Mostly Cloudy
9:51 PM 71.1 °F 66.9 °F 87% 29.75 in 10.0 mi South 10.4 mph - N/A   Mostly Cloudy
10:02 PM 71.6 °F 66.2 °F 83% 29.76 in 10.0 mi South 10.4 mph - N/A   Mostly Cloudy
10:11 PM 71.6 °F 68.0 °F 88% 29.76 in 10.0 mi South 9.2 mph - 0.00 in Rain Light Rain
10:38 PM 64.4 °F 60.8 °F 88% 29.79 in 2.5 mi West 12.7 mph 27.6 mph 0.08 in Rain Heavy Rain
10:51 PM 64.0 °F 61.0 °F 90% 29.78 in 2.5 mi WSW 6.9 mph - 0.17 in Rain Heavy Rain
10:59 PM 62.6 °F 60.8 °F 94% 29.79 in 6.0 mi WSW 6.9 mph - 0.01 in Rain Light Rain
11:51 PM 62.1 °F 61.0 °F 96% 29.76 in 4.0 mi Calm Calm - 0.09 in Rain Rain